| time (UTC) | temp F | wind direction | speed knots | gust knots | rain 1hr in | rain 24hr in | rain mn in | humidity % | barometer mb |
| 20260508144330 | 91 | 312 | 0.0 | 0.0 | 0.00 | 0.00 | 0.00 | 29 | |
| 20260508142829 | 91 | 263 | 0.9 | 0.0 | 0.00 | 0.00 | 0.00 | 28 | |
| 20260508141329 | 91 | 263 | 0.9 | 0.0 | 0.00 | 0.00 | 0.00 | 99 | |
| 20260508135830 | 91 | 79 | 0.0 | 0.0 | 0.00 | 0.00 | 0.00 | 23 | |
| 20260508134330 | 92 | 0 | 0.0 | 0.0 | 0.00 | 0.00 | 0.00 | 22 | |
| 20260508132830 | 94 | 0 | 0.0 | 0.0 | 0.00 | 0.00 | 0.00 | 13 | |
| 20260508131330 | 95 | 0 | 0.0 | 0.0 | 0.00 | 0.00 | 0.00 | 32 | |
| 20260508125829 | 95 | 54 | 0.0 | 0.0 | 0.00 | 0.00 | 0.00 | 10 | |
| 20260508124330 | 96 | 78 | 0.0 | 0.0 | 0.00 | 0.00 | 0.00 | 10 | |
| 20260508122830 | 96 | 89 | 0.0 | 0.0 | 0.00 | 0.00 | 0.00 | 10 | |
| 20260508121329 | 96 | 19 | 0.0 | 0.0 | 0.00 | 0.00 | 0.00 | 10 | |
| 20260508115830 | 96 | 69 | 0.0 | 0.0 | 0.00 | 0.00 | 0.00 | 10 | |
| 20260508114329 | 96 | 26 | 0.0 | 0.0 | 0.00 | 0.00 | 0.00 | 10 | |
| 20260508112830 | 97 | 340 | 0.9 | 0.0 | 0.00 | 0.00 | 0.00 | 10 | |
| 20260508111330 | 98 | 31 | 0.0 | 0.0 | 0.00 | 0.00 | 0.00 | 30 | |
| 20260508105829 | 99 | 126 | 0.0 | 0.0 | 0.00 | 0.00 | 0.00 | 10 | |
| 20260508104330 | 100 | 93 | 0.0 | 0.0 | 0.00 | 0.00 | 0.00 | 24 | |
| 20260508102830 | 103 | 148 | 0.0 | 0.0 | 0.00 | 0.00 | 0.00 | 99 | |
| 20260508101330 | 102 | 4 | 0.9 | 0.0 | 0.00 | 0.00 | 0.00 | 99 | |
| 20260508095830 | 103 | 129 | 0.9 | 0.0 | 0.00 | 0.00 | 0.00 | 99 | |
| 20260508094330 | 104 | 89 | 0.9 | 0.0 | 0.00 | 0.00 | 0.00 | 25 | |
| 20260508092829 | 102 | 95 | 0.9 | 0.0 | 0.00 | 0.00 | 0.00 | 22 | |
| 20260508091330 | 103 | 19 | 0.9 | 0.0 | 0.00 | 0.00 | 0.00 | 99 | |
| 20260508085829 | 104 | 313 | 0.9 | 0.0 | 0.00 | 0.00 | 0.00 | 20 | |
| 20260508084330 | 105 | 180 | 0.9 | 0.0 | 0.00 | 0.00 | 0.00 | 20 | |
| 20260508082829 | 101 | 36 | 0.9 | 0.0 | 0.00 | 0.00 | 0.00 | 25 | |
| 20260508081329 | 102 | 113 | 1.7 | 0.0 | 0.00 | 0.00 | 0.00 | 25 | |
| 20260508075830 | 102 | 342 | 0.9 | 0.0 | 0.00 | 0.00 | 0.00 | 22 | |
| 20260508074329 | 103 | 91 | 0.9 | 0.0 | 0.00 | 0.00 | 0.00 | 20 | |
| 20260508072809 | 102 | 344 | 0.9 | 0.0 | 0.00 | 0.00 | 0.00 | 20 | |
| 20260508071319 | 103 | 1 | 0.0 | 0.0 | 0.00 | 0.00 | 0.00 | 99 | |
| 20260508065808 | 102 | 56 | 0.9 | 0.0 | 0.00 | 0.00 | 0.00 | 26 | |
| 20260508064318 | 101 | 67 | 0.9 | 0.0 | 0.00 | 0.00 | 0.00 | 25 | |
| 20260508062809 | 101 | 68 | 0.0 | 0.0 | 0.00 | 0.00 | 0.00 | 9 | |
| 20260508061317 | 100 | 104 | 0.9 | 0.0 | 0.00 | 0.00 | 0.00 | 15 | |
| 20260508054315 | 100 | 5 | 0.9 | 0.0 | 0.00 | 0.00 | 0.00 | 19 | |
| 20260508052809 | 98 | 355 | 0.9 | 0.0 | 0.00 | 0.00 | 0.00 | 22 | |
| 20260508045813 | 95 | 16 | 0.9 | 0.0 | 0.00 | 0.00 | 0.00 | 25 | |
| 20260508044123 | 94 | 99 | 0.0 | 0.0 | 0.00 | 0.00 | 0.00 | 26 | |
| 20260508042623 | 94 | 147 | 0.0 | 0.0 | 0.00 | 0.00 | 0.00 | 27 | |
| 20260508041121 | 93 | 95 | 0.0 | 0.0 | 0.00 | 0.00 | 0.00 | 28 | |
| 20260508035632 | 93 | 72 | 0.9 | 0.0 | 0.00 | 0.00 | 0.00 | 30 |